User: anonymous
Location: Mt. Cuba Astronomical Observatory
(39.8100°N, 75.6300°W)
Time: 13:57:55
(UTC-04:00)
Language:

Cosmos 2058 - Orbit

View from above orbital plane
View from above orbital plane
View from above satellite
View from above satellite

Ground track
Ground track

The orbit data is extracted from the following two-line orbital elements,

1 20465U 90010A   14293.49638001  .00003617  00000-0  32612-3 0  2589
2 20465 082.4884 100.0893 0015461 324.6678 035.3517 14.95213689340130
Epoch (UTC): 20 October 2014 11:54:47
Eccentricity: 0.0015461
inclination: 82.4884°
perigee height: 571 km
apogee height: 592 km
right ascension of ascending node: 100.0893°
argument of perigee: 324.6678°
revolutions per day: 14.95213689
mean anomaly at epoch: 35.3517°
orbit number at epoch: 34013

The dashed part of the orbit path shows where the satellite is in the earth's shadow,  

DLR